Year,Month,Day,Hour,Minute,Value (Times are PST for barometer in hPa)
2019,10,03,00,00,964.51
2019,10,03,00,01,964.51
2019,10,03,00,02,964.51
2019,10,03,00,03,964.51
2019,10,03,00,04,964.51
2019,10,03,00,05,964.52
2019,10,03,00,06,964.55
2019,10,03,00,07,964.58
2019,10,03,00,08,964.54
2019,10,03,00,09,964.51
2019,10,03,00,10,964.49
2019,10,03,00,11,964.51
2019,10,03,00,12,964.51
2019,10,03,00,13,964.48
2019,10,03,00,14,964.48
2019,10,03,00,15,964.48
2019,10,03,00,16,964.48
2019,10,03,00,17,964.48
2019,10,03,00,18,964.50
2019,10,03,00,19,964.54
2019,10,03,00,20,964.50
2019,10,03,00,21,964.47
2019,10,03,00,22,964.45
2019,10,03,00,23,964.46
2019,10,03,00,24,964.41
2019,10,03,00,25,964.41
2019,10,03,00,26,964.45
2019,10,03,00,27,964.53
2019,10,03,00,28,964.40
2019,10,03,00,29,964.38
2019,10,03,00,30,964.40
2019,10,03,00,31,964.43
2019,10,03,00,32,964.41
2019,10,03,00,33,964.41
2019,10,03,00,34,964.41
2019,10,03,00,35,964.37
2019,10,03,00,36,964.27
2019,10,03,00,37,964.29
2019,10,03,00,38,964.34
2019,10,03,00,39,964.34
2019,10,03,00,40,964.34
2019,10,03,00,41,964.34
2019,10,03,00,42,964.34
2019,10,03,00,43,964.34
2019,10,03,00,44,964.34
2019,10,03,00,45,964.31
2019,10,03,00,46,964.25
2019,10,03,00,47,964.29
2019,10,03,00,48,964.33
2019,10,03,00,49,964.30
2019,10,03,00,50,964.27
2019,10,03,00,51,964.28
2019,10,03,00,52,964.31
2019,10,03,00,53,964.30
2019,10,03,00,54,964.25
2019,10,03,00,55,964.22
2019,10,03,00,56,964.23
2019,10,03,00,57,964.24
2019,10,03,00,58,964.31
2019,10,03,00,59,964.30
2019,10,03,01,00,964.26
2019,10,03,01,01,964.23
2019,10,03,01,02,964.20
2019,10,03,01,03,964.18
2019,10,03,01,04,964.21
2019,10,03,01,05,964.22
2019,10,03,01,06,964.23
2019,10,03,01,07,964.21
2019,10,03,01,08,964.21
2019,10,03,01,09,964.21
2019,10,03,01,10,964.38
2019,10,03,01,11,964.68
2019,10,03,01,12,964.68
2019,10,03,01,13,964.68
2019,10,03,01,14,964.68
2019,10,03,01,15,964.68
2019,10,03,01,16,964.68
2019,10,03,01,17,964.68
2019,10,03,01,18,964.43
2019,10,03,01,19,964.00
2019,10,03,01,20,964.00
2019,10,03,01,21,964.00
2019,10,03,01,22,964.00
2019,10,03,01,23,964.00
2019,10,03,01,24,964.00
2019,10,03,01,25,964.02
2019,10,03,01,26,964.02
2019,10,03,01,27,963.98
2019,10,03,01,28,963.95
2019,10,03,01,29,963.97
2019,10,03,01,30,963.93
2019,10,03,01,31,963.88
2019,10,03,01,32,963.88
2019,10,03,01,33,963.81
2019,10,03,01,34,963.78
2019,10,03,01,35,963.83
2019,10,03,01,36,963.87
2019,10,03,01,37,963.85
2019,10,03,01,38,963.88
2019,10,03,01,39,963.91
2019,10,03,01,40,963.87
2019,10,03,01,41,963.87
2019,10,03,01,42,963.87
2019,10,03,01,43,963.87
2019,10,03,01,44,963.84
2019,10,03,01,45,963.80
2019,10,03,01,46,963.80
2019,10,03,01,47,963.81
2019,10,03,01,48,963.80
2019,10,03,01,49,963.82
2019,10,03,01,50,963.96
2019,10,03,01,51,964.07
2019,10,03,01,52,964.07
2019,10,03,01,53,964.07
2019,10,03,01,54,964.07
2019,10,03,01,55,964.07
2019,10,03,01,56,964.07
2019,10,03,01,57,964.07
2019,10,03,01,58,964.07
2019,10,03,01,59,964.07
2019,10,03,02,00,964.07
2019,10,03,02,01,964.07
2019,10,03,02,02,964.07
2019,10,03,02,03,964.07
2019,10,03,02,04,964.17
2019,10,03,02,05,964.27
2019,10,03,02,06,964.27
2019,10,03,02,07,964.09
2019,10,03,02,08,963.89
2019,10,03,02,09,963.85
2019,10,03,02,10,963.83
2019,10,03,02,11,963.83
2019,10,03,02,12,963.83
2019,10,03,02,13,963.83
2019,10,03,02,14,963.83
2019,10,03,02,15,963.85
2019,10,03,02,16,963.85
2019,10,03,02,17,963.89
2019,10,03,02,18,964.23
2019,10,03,02,19,964.55
2019,10,03,02,20,964.55
2019,10,03,02,21,964.55
2019,10,03,02,22,964.55
2019,10,03,02,23,964.55
2019,10,03,02,24,964.55
2019,10,03,02,25,964.55
2019,10,03,02,26,964.55
2019,10,03,02,27,964.55
2019,10,03,02,28,964.55
2019,10,03,02,29,964.55
2019,10,03,02,30,964.09
2019,10,03,02,31,963.82
2019,10,03,02,32,963.94
2019,10,03,02,33,963.94
2019,10,03,02,34,963.94
2019,10,03,02,35,963.94
2019,10,03,02,36,963.94
2019,10,03,02,37,963.94
2019,10,03,02,38,963.94
2019,10,03,02,39,963.94
2019,10,03,02,40,963.94
2019,10,03,02,41,963.94
2019,10,03,02,42,963.94
2019,10,03,02,43,963.94
2019,10,03,02,44,963.94
2019,10,03,02,45,963.94
2019,10,03,02,46,963.94
2019,10,03,02,47,963.94
2019,10,03,02,48,963.94
2019,10,03,02,49,963.94
2019,10,03,02,50,963.94
2019,10,03,02,51,963.94
2019,10,03,02,52,963.94
2019,10,03,02,53,963.94
2019,10,03,02,54,963.94
2019,10,03,02,55,963.94
2019,10,03,02,56,963.94
2019,10,03,02,57,963.94
2019,10,03,02,58,963.27
2019,10,03,02,59,962.85
2019,10,03,03,00,962.85
2019,10,03,03,01,962.85
2019,10,03,03,02,962.85
2019,10,03,03,03,962.85
2019,10,03,03,04,962.85
2019,10,03,03,05,962.85
2019,10,03,03,06,962.85
2019,10,03,03,07,961.78
2019,10,03,03,08,961.13
2019,10,03,03,09,962.53
2019,10,03,03,10,963.35
2019,10,03,03,11,963.27
2019,10,03,03,12,963.22
2019,10,03,03,13,963.22
2019,10,03,03,14,963.27
2019,10,03,03,15,963.27
2019,10,03,03,16,963.26
2019,10,03,03,17,963.26
2019,10,03,03,18,963.26
2019,10,03,03,19,963.26
2019,10,03,03,20,963.26
2019,10,03,03,21,963.26
2019,10,03,03,22,963.26
2019,10,03,03,23,963.26
2019,10,03,03,24,963.26
2019,10,03,03,25,963.17
2019,10,03,03,26,963.10
2019,10,03,03,27,963.09
2019,10,03,03,28,963.09
2019,10,03,03,29,963.09
2019,10,03,03,30,963.09
2019,10,03,03,31,963.09
2019,10,03,03,32,963.09
2019,10,03,03,33,963.09
2019,10,03,03,34,963.09
2019,10,03,03,35,963.09
2019,10,03,03,36,963.09
2019,10,03,03,37,963.09
2019,10,03,03,38,963.09
2019,10,03,03,39,963.09
2019,10,03,03,40,963.09
2019,10,03,03,41,963.09
2019,10,03,03,42,963.09
2019,10,03,03,43,963.09
2019,10,03,03,44,963.09
2019,10,03,03,45,963.09
2019,10,03,03,46,963.09
2019,10,03,03,47,963.09
2019,10,03,03,48,963.09
2019,10,03,03,49,963.09
2019,10,03,03,50,963.09
2019,10,03,03,51,963.09
2019,10,03,03,52,963.09
2019,10,03,03,53,963.09
2019,10,03,03,54,963.09
2019,10,03,03,55,963.09
2019,10,03,03,56,963.09
2019,10,03,03,57,963.09
2019,10,03,03,58,962.99
2019,10,03,03,59,962.95
2019,10,03,04,00,962.95
2019,10,03,04,01,962.95
2019,10,03,04,02,962.95
2019,10,03,04,03,962.95
2019,10,03,04,04,962.95
2019,10,03,04,08,962.95
2019,10,03,04,09,962.95
2019,10,03,04,10,962.95
2019,10,03,04,11,962.95
2019,10,03,04,12,962.95
2019,10,03,04,13,962.95
2019,10,03,04,14,962.95
2019,10,03,04,15,962.95
2019,10,03,04,16,962.95
2019,10,03,04,17,962.95
2019,10,03,04,18,962.95
2019,10,03,04,19,962.95
2019,10,03,04,20,962.95
2019,10,03,04,21,962.95
2019,10,03,04,22,962.95
2019,10,03,04,23,962.95
2019,10,03,04,24,962.95
2019,10,03,04,25,962.95
2019,10,03,04,26,962.95
2019,10,03,04,27,962.95
2019,10,03,04,28,962.95
2019,10,03,04,29,962.95
2019,10,03,04,30,962.95
2019,10,03,04,31,962.95
2019,10,03,04,32,962.95
2019,10,03,04,33,962.95
2019,10,03,04,34,962.95
2019,10,03,04,35,962.95
2019,10,03,04,36,962.95
2019,10,03,04,37,962.95
2019,10,03,04,38,962.95
2019,10,03,04,39,962.95
2019,10,03,04,40,962.95
2019,10,03,04,41,962.95
2019,10,03,04,42,962.95
2019,10,03,04,43,962.95
2019,10,03,04,44,962.95
2019,10,03,04,45,962.95
2019,10,03,04,46,962.95
2019,10,03,04,47,962.95
2019,10,03,04,48,962.95
2019,10,03,04,49,962.95
2019,10,03,04,50,962.95
2019,10,03,04,51,962.95
2019,10,03,04,52,962.95
2019,10,03,04,53,962.95
2019,10,03,04,54,962.95
2019,10,03,04,55,962.95
2019,10,03,04,56,962.95
2019,10,03,04,57,962.95
2019,10,03,04,58,962.95
2019,10,03,04,59,962.95
2019,10,03,05,00,962.95
2019,10,03,05,01,962.95
2019,10,03,05,02,962.95
2019,10,03,05,03,962.95
2019,10,03,05,04,962.95
2019,10,03,05,05,962.95
2019,10,03,05,06,962.95
2019,10,03,05,07,962.95
2019,10,03,05,08,962.95
2019,10,03,05,09,962.95
2019,10,03,05,10,962.95
2019,10,03,05,11,962.95
2019,10,03,05,12,962.95
2019,10,03,05,13,962.95
2019,10,03,05,14,962.95
2019,10,03,05,15,962.95
2019,10,03,05,16,962.95
2019,10,03,05,17,962.95
2019,10,03,05,18,962.95
2019,10,03,05,19,962.95
2019,10,03,05,20,962.95
2019,10,03,05,21,962.95
2019,10,03,05,22,962.95
2019,10,03,05,23,962.95
2019,10,03,05,24,962.95
2019,10,03,05,25,962.95
2019,10,03,05,26,962.95
2019,10,03,05,27,962.95
2019,10,03,05,28,962.95
2019,10,03,05,29,962.95
2019,10,03,05,30,962.95
2019,10,03,05,31,962.95
2019,10,03,05,32,962.95
2019,10,03,05,33,962.95
2019,10,03,05,34,962.95
2019,10,03,05,35,962.95
2019,10,03,05,36,962.95
2019,10,03,05,37,962.95
2019,10,03,05,38,962.95
2019,10,03,05,39,962.95
2019,10,03,05,40,962.95
2019,10,03,05,41,962.95
2019,10,03,05,42,962.95
2019,10,03,05,43,962.95
2019,10,03,05,44,962.95
2019,10,03,05,45,962.95
2019,10,03,05,46,962.95
2019,10,03,05,47,962.95
2019,10,03,05,48,962.95
2019,10,03,05,49,962.95
2019,10,03,05,50,962.95
2019,10,03,05,51,962.95
2019,10,03,05,52,962.95
2019,10,03,05,53,962.95
2019,10,03,05,54,962.95
2019,10,03,05,55,962.95
2019,10,03,05,56,962.95
2019,10,03,05,57,962.95
2019,10,03,05,58,962.95
2019,10,03,05,59,962.95
2019,10,03,06,00,962.95
2019,10,03,06,01,962.95
2019,10,03,06,02,962.95
2019,10,03,06,03,962.95
2019,10,03,06,04,962.95
2019,10,03,06,05,962.95
2019,10,03,06,06,962.95
2019,10,03,06,07,962.95
2019,10,03,06,08,962.95
2019,10,03,06,09,962.95
2019,10,03,06,10,962.95
2019,10,03,06,11,962.95
2019,10,03,06,12,962.95
2019,10,03,06,13,962.95
2019,10,03,06,14,962.95
2019,10,03,06,15,962.95
2019,10,03,06,16,962.95
2019,10,03,06,17,962.95
2019,10,03,06,18,962.95
2019,10,03,06,19,962.95
2019,10,03,06,20,962.95
2019,10,03,06,21,962.95
2019,10,03,06,22,962.95
2019,10,03,06,23,962.95
2019,10,03,06,24,962.95
2019,10,03,06,25,962.95
2019,10,03,06,26,962.95
2019,10,03,06,27,962.95
2019,10,03,06,28,962.95
2019,10,03,06,29,962.95
2019,10,03,06,30,962.95
2019,10,03,06,31,962.95
2019,10,03,06,32,962.95
2019,10,03,06,33,962.95
2019,10,03,06,34,962.95
2019,10,03,06,35,962.95
2019,10,03,06,36,962.95
2019,10,03,06,37,962.95
2019,10,03,06,38,962.95
2019,10,03,06,39,962.95
2019,10,03,06,40,962.95
2019,10,03,06,41,962.95
2019,10,03,06,42,962.95
2019,10,03,06,43,962.95
2019,10,03,06,44,962.95
2019,10,03,06,45,962.95
2019,10,03,06,46,962.95
2019,10,03,06,47,962.95
2019,10,03,06,48,962.95
2019,10,03,06,49,962.95
2019,10,03,06,50,962.95
2019,10,03,06,51,962.95
2019,10,03,06,52,962.95
2019,10,03,06,53,962.95
2019,10,03,06,54,962.95
2019,10,03,06,55,962.95
2019,10,03,06,56,962.95
2019,10,03,06,57,962.95
2019,10,03,06,58,962.95
2019,10,03,06,59,962.95
2019,10,03,07,00,962.95
2019,10,03,07,01,962.95
2019,10,03,07,02,962.95
2019,10,03,07,03,962.95
2019,10,03,07,04,962.95
2019,10,03,07,05,962.95
2019,10,03,07,06,962.95
2019,10,03,07,07,962.95
2019,10,03,07,08,962.95
2019,10,03,07,09,962.95
2019,10,03,07,10,964.07
2019,10,03,07,11,964.18
2019,10,03,07,12,963.96
2019,10,03,07,13,963.96
2019,10,03,07,14,963.97
2019,10,03,07,15,963.97
2019,10,03,07,16,963.97
2019,10,03,07,17,963.97
2019,10,03,07,18,963.97
2019,10,03,07,19,963.97
2019,10,03,07,20,963.97
2019,10,03,07,21,963.97
2019,10,03,07,22,963.97
2019,10,03,07,23,963.97
2019,10,03,07,24,963.97
2019,10,03,07,25,963.97
2019,10,03,07,26,963.97
2019,10,03,07,27,963.97
2019,10,03,07,28,963.97
2019,10,03,07,29,963.97
2019,10,03,07,30,963.97
2019,10,03,07,31,963.97
2019,10,03,07,32,964.20
2019,10,03,07,33,964.27
2019,10,03,07,34,964.27
2019,10,03,07,35,964.27
2019,10,03,07,36,964.27
2019,10,03,07,37,964.27
2019,10,03,07,38,964.27
2019,10,03,07,39,964.27
2019,10,03,07,40,964.27
2019,10,03,07,41,964.27
2019,10,03,07,42,964.27
2019,10,03,07,43,964.27
2019,10,03,07,44,964.27
2019,10,03,07,45,964.65
2019,10,03,07,46,964.75
2019,10,03,07,47,964.75
2019,10,03,07,48,964.75
2019,10,03,07,49,964.75
2019,10,03,07,50,964.75
2019,10,03,07,51,964.75
2019,10,03,07,52,964.75
2019,10,03,07,53,964.34
2019,10,03,07,54,964.21
2019,10,03,07,55,964.21
2019,10,03,07,56,964.21
2019,10,03,07,57,964.21
2019,10,03,07,58,964.21
2019,10,03,07,59,964.21
2019,10,03,08,00,964.21
2019,10,03,08,01,964.21
2019,10,03,08,02,964.21
2019,10,03,08,03,964.21
2019,10,03,08,04,964.21
2019,10,03,08,05,964.21
2019,10,03,08,06,964.21
2019,10,03,08,07,964.21
2019,10,03,08,08,964.21
2019,10,03,08,09,964.21
2019,10,03,08,10,964.21
2019,10,03,08,11,964.21
2019,10,03,08,12,964.21
2019,10,03,08,13,964.21
2019,10,03,08,14,964.21
2019,10,03,08,15,964.21
2019,10,03,08,16,964.21
2019,10,03,08,17,964.21
2019,10,03,08,18,964.21
2019,10,03,08,19,964.21
2019,10,03,08,20,964.21
2019,10,03,08,21,964.21
2019,10,03,08,22,964.21
2019,10,03,08,23,964.21
2019,10,03,08,24,964.21
2019,10,03,08,25,964.21
2019,10,03,08,26,964.21
2019,10,03,08,27,964.21
2019,10,03,08,28,964.21
2019,10,03,08,29,964.21
2019,10,03,08,30,964.21
2019,10,03,08,31,964.21
2019,10,03,08,32,964.21
2019,10,03,08,33,964.21
2019,10,03,08,34,964.21
2019,10,03,08,35,964.21
2019,10,03,08,36,964.21
2019,10,03,08,37,964.21
2019,10,03,08,38,964.21
2019,10,03,08,39,964.21
2019,10,03,08,40,964.21
2019,10,03,08,41,964.21
2019,10,03,08,42,964.21
2019,10,03,08,43,964.21
2019,10,03,08,44,964.21
2019,10,03,08,45,964.21
2019,10,03,08,46,964.21
2019,10,03,08,47,964.21
2019,10,03,08,48,964.21
2019,10,03,08,49,964.21
2019,10,03,08,50,964.21
2019,10,03,08,51,964.21
2019,10,03,08,52,964.21
2019,10,03,08,53,964.21
2019,10,03,08,54,964.21
2019,10,03,08,55,964.21
2019,10,03,08,56,964.21
2019,10,03,08,57,964.21
2019,10,03,08,58,964.21
2019,10,03,08,59,964.21
2019,10,03,09,00,964.21
2019,10,03,09,01,964.21
2019,10,03,09,02,964.21
2019,10,03,09,03,964.21
2019,10,03,09,04,964.21
2019,10,03,09,05,964.21
2019,10,03,09,06,964.21
2019,10,03,09,07,964.21
2019,10,03,09,08,964.21
2019,10,03,09,09,964.21
2019,10,03,09,10,964.21
2019,10,03,09,11,964.21
2019,10,03,09,12,964.21
2019,10,03,09,13,964.21
2019,10,03,09,14,964.21
2019,10,03,09,15,964.21
2019,10,03,09,16,964.21
2019,10,03,09,17,964.21
2019,10,03,09,18,964.21
2019,10,03,09,19,964.21
2019,10,03,09,20,964.21
2019,10,03,09,21,964.21
2019,10,03,09,22,964.21
2019,10,03,09,23,964.21
2019,10,03,09,24,964.21
2019,10,03,09,25,964.21
2019,10,03,09,26,964.21
2019,10,03,09,27,964.21
2019,10,03,09,28,964.21
2019,10,03,09,29,964.21
2019,10,03,09,30,964.21
2019,10,03,09,31,964.21
2019,10,03,09,32,964.21
2019,10,03,09,33,964.21
2019,10,03,09,34,964.21
2019,10,03,09,35,964.21
2019,10,03,09,36,964.21
2019,10,03,09,37,964.21
2019,10,03,09,38,964.21
2019,10,03,09,39,964.21
2019,10,03,09,40,964.21
2019,10,03,09,41,964.21
2019,10,03,09,42,964.21
2019,10,03,09,43,964.21
2019,10,03,09,44,964.21
2019,10,03,09,45,964.21
2019,10,03,09,46,964.21
2019,10,03,09,47,964.21
2019,10,03,09,48,964.21
2019,10,03,09,49,964.21
2019,10,03,09,50,964.21
2019,10,03,09,51,964.28
2019,10,03,09,52,964.92
2019,10,03,09,53,964.92
2019,10,03,09,54,964.88
2019,10,03,09,55,964.88
2019,10,03,09,56,964.88
2019,10,03,09,57,964.88
2019,10,03,09,58,964.88
2019,10,03,09,59,964.89
2019,10,03,10,00,964.95
2019,10,03,10,01,964.95
2019,10,03,10,02,964.95
2019,10,03,10,03,964.95
2019,10,03,10,04,964.94
2019,10,03,10,05,964.82
2019,10,03,10,06,964.82
2019,10,03,10,07,964.82
2019,10,03,10,08,964.82
2019,10,03,10,09,964.82
2019,10,03,10,10,964.82
2019,10,03,10,11,964.82
2019,10,03,10,12,964.82
2019,10,03,10,13,964.82
2019,10,03,10,14,964.82
2019,10,03,10,15,964.82
2019,10,03,10,16,964.82
2019,10,03,10,17,964.82
2019,10,03,10,18,964.82
2019,10,03,10,19,964.82
2019,10,03,10,20,964.82
2019,10,03,10,21,964.87
2019,10,03,10,22,965.19
2019,10,03,10,23,965.19
2019,10,03,10,24,965.19
2019,10,03,10,25,965.19
2019,10,03,10,26,965.19
2019,10,03,10,27,965.19
2019,10,03,10,28,965.19
2019,10,03,10,29,965.19
2019,10,03,10,30,965.19
2019,10,03,10,31,965.19
2019,10,03,10,32,965.19
2019,10,03,10,33,965.19
2019,10,03,10,34,965.19
2019,10,03,10,35,965.19
2019,10,03,10,36,965.19
2019,10,03,10,37,965.19
2019,10,03,10,38,965.19
2019,10,03,10,39,965.19
2019,10,03,10,40,965.19
2019,10,03,10,41,965.19
2019,10,03,10,42,965.19
2019,10,03,10,43,965.19
2019,10,03,10,44,965.19
2019,10,03,10,45,965.19
2019,10,03,10,46,965.19
2019,10,03,10,47,965.19
2019,10,03,10,48,965.19
2019,10,03,10,49,965.23
2019,10,03,10,50,965.37
2019,10,03,10,51,965.29
2019,10,03,10,52,965.29
2019,10,03,10,53,965.29
2019,10,03,10,54,965.29
2019,10,03,10,55,965.27
2019,10,03,10,56,965.19
2019,10,03,10,57,965.19
2019,10,03,10,58,965.19
2019,10,03,10,59,965.19
2019,10,03,11,00,965.20
2019,10,03,11,01,965.23
2019,10,03,11,02,965.26
2019,10,03,11,03,965.26
2019,10,03,11,04,965.26
2019,10,03,11,05,965.26
2019,10,03,11,06,965.26
2019,10,03,11,07,965.26
2019,10,03,11,08,965.26
2019,10,03,11,09,965.26
2019,10,03,11,10,965.26
2019,10,03,11,11,965.26
2019,10,03,11,12,965.26
2019,10,03,11,13,965.26
2019,10,03,11,14,965.23
2019,10,03,11,15,965.17
2019,10,03,11,16,965.19
2019,10,03,11,17,965.19
2019,10,03,11,18,965.19
2019,10,03,11,19,965.19
2019,10,03,11,20,965.19
2019,10,03,11,21,965.19
2019,10,03,11,22,965.19
2019,10,03,11,23,965.19
2019,10,03,11,24,965.19
2019,10,03,11,25,965.19
2019,10,03,11,26,965.19
2019,10,03,11,27,965.19
2019,10,03,11,28,965.19
2019,10,03,11,29,965.19
2019,10,03,11,30,965.19
2019,10,03,11,31,965.19
2019,10,03,11,32,965.34
2019,10,03,11,33,965.66
2019,10,03,11,34,965.66
2019,10,03,11,35,965.66
2019,10,03,11,36,965.66
2019,10,03,11,37,965.66
2019,10,03,11,38,965.66
2019,10,03,11,39,965.66
2019,10,03,11,40,965.66
2019,10,03,11,41,965.66
2019,10,03,11,42,965.66
2019,10,03,11,43,965.66
2019,10,03,11,44,965.66
2019,10,03,11,45,965.66
2019,10,03,11,46,965.66
2019,10,03,11,47,965.66
2019,10,03,11,48,965.66
2019,10,03,11,49,965.66
2019,10,03,11,50,965.66
2019,10,03,11,51,965.66
2019,10,03,11,52,965.66
2019,10,03,11,53,965.66
2019,10,03,11,54,965.66
2019,10,03,11,55,965.53
2019,10,03,11,56,965.32
2019,10,03,11,57,965.32
2019,10,03,11,58,965.34
2019,10,03,11,59,965.37
2019,10,03,12,00,965.39
2019,10,03,12,01,965.39
2019,10,03,12,02,965.39
2019,10,03,12,03,965.39
2019,10,03,12,04,965.42
2019,10,03,12,05,965.46
2019,10,03,12,06,965.43
2019,10,03,12,07,965.42
2019,10,03,12,08,965.43
2019,10,03,12,09,965.39
2019,10,03,12,10,965.35
2019,10,03,12,11,965.32
2019,10,03,12,12,965.36
2019,10,03,12,13,965.36
2019,10,03,12,14,965.36
2019,10,03,12,15,965.39
2019,10,03,12,16,965.40
2019,10,03,12,17,965.36
2019,10,03,12,18,965.36
2019,10,03,12,19,965.34
2019,10,03,12,20,965.34
2019,10,03,12,21,965.37
2019,10,03,12,22,965.42
2019,10,03,12,23,965.46
2019,10,03,12,24,965.45
2019,10,03,12,25,965.44
2019,10,03,12,26,965.45
2019,10,03,12,27,965.48
2019,10,03,12,28,965.51
2019,10,03,12,29,965.51
2019,10,03,12,30,965.46
2019,10,03,12,31,965.37
2019,10,03,12,32,965.39
2019,10,03,12,33,965.41
2019,10,03,12,34,965.46
2019,10,03,12,35,965.46
2019,10,03,12,36,965.43
2019,10,03,12,37,965.44
2019,10,03,12,38,965.46
2019,10,03,12,39,965.46
2019,10,03,12,40,965.46
2019,10,03,12,41,965.46
2019,10,03,12,42,965.46
2019,10,03,12,43,965.46
2019,10,03,12,44,965.46
2019,10,03,12,45,965.46
2019,10,03,12,46,965.46
2019,10,03,12,47,965.46
2019,10,03,12,48,965.46
2019,10,03,12,49,965.46
2019,10,03,12,50,965.46
2019,10,03,12,51,965.46
2019,10,03,12,52,965.46
2019,10,03,12,53,965.46
2019,10,03,12,54,965.46
2019,10,03,12,55,965.46
2019,10,03,12,56,965.46
2019,10,03,12,57,965.46
2019,10,03,12,58,965.46
2019,10,03,12,59,965.46
2019,10,03,13,00,965.46
2019,10,03,13,01,965.46
2019,10,03,13,02,965.46
2019,10,03,13,03,965.46
2019,10,03,13,04,965.46
2019,10,03,13,05,965.46
2019,10,03,13,06,965.46
2019,10,03,13,07,965.46
2019,10,03,13,08,965.46
2019,10,03,13,09,965.46
2019,10,03,13,10,965.46
2019,10,03,13,11,965.46
2019,10,03,13,12,965.46
2019,10,03,13,13,965.46
2019,10,03,13,14,965.46
2019,10,03,13,15,965.46
2019,10,03,13,16,965.46
2019,10,03,13,17,965.46
2019,10,03,13,18,965.46
2019,10,03,13,19,965.46
2019,10,03,13,20,965.46
2019,10,03,13,21,965.46
2019,10,03,13,22,965.46
2019,10,03,13,23,965.46
2019,10,03,13,24,965.46
2019,10,03,13,25,965.46
2019,10,03,13,26,965.46
2019,10,03,13,27,965.46
2019,10,03,13,28,965.46
2019,10,03,13,29,965.46
2019,10,03,13,30,965.46
2019,10,03,13,31,965.46
2019,10,03,13,32,965.46
2019,10,03,13,33,965.46
2019,10,03,13,34,965.46
2019,10,03,13,35,965.46
2019,10,03,13,36,965.46
2019,10,03,13,37,965.46
2019,10,03,13,38,965.46
2019,10,03,13,39,965.46
2019,10,03,13,40,965.46
2019,10,03,13,41,965.46
2019,10,03,13,42,965.46
2019,10,03,13,43,965.46
2019,10,03,13,44,965.46
2019,10,03,13,45,965.46
2019,10,03,13,46,965.46
2019,10,03,13,47,965.46
2019,10,03,13,48,965.46
2019,10,03,13,49,965.46
2019,10,03,13,50,965.46
2019,10,03,13,51,965.46
2019,10,03,13,52,965.46
2019,10,03,13,53,965.46
2019,10,03,13,54,965.46
2019,10,03,13,55,965.48
2019,10,03,13,56,965.47
2019,10,03,13,57,965.48
2019,10,03,13,58,965.45
2019,10,03,13,59,965.47
2019,10,03,14,00,965.49
2019,10,03,14,01,965.49
2019,10,03,14,02,965.49
2019,10,03,14,03,965.49
2019,10,03,14,04,965.49
2019,10,03,14,05,965.49
2019,10,03,14,06,965.49
2019,10,03,14,07,965.49
2019,10,03,14,08,965.49
2019,10,03,14,09,965.49
2019,10,03,14,10,965.49
2019,10,03,14,11,965.49
2019,10,03,14,12,965.49
2019,10,03,14,13,965.49
2019,10,03,14,14,965.49
2019,10,03,14,15,965.49
2019,10,03,14,16,965.49
2019,10,03,14,17,965.49
2019,10,03,14,18,965.49
2019,10,03,14,19,965.49
2019,10,03,14,20,965.49
2019,10,03,14,21,965.49
2019,10,03,14,22,965.49
2019,10,03,14,23,965.49
2019,10,03,14,24,965.49
2019,10,03,14,25,965.49
2019,10,03,14,26,965.49
2019,10,03,14,27,965.49
2019,10,03,14,28,965.49
2019,10,03,14,29,965.49
2019,10,03,14,30,965.49
2019,10,03,14,31,965.49
2019,10,03,14,32,965.49
2019,10,03,14,33,965.49
2019,10,03,14,34,965.49
2019,10,03,14,35,965.49
2019,10,03,14,36,965.49
2019,10,03,14,37,965.49
2019,10,03,14,38,965.49
2019,10,03,14,39,965.49
2019,10,03,14,40,965.49
2019,10,03,14,41,965.49
2019,10,03,14,42,965.49
2019,10,03,14,43,965.49
2019,10,03,14,44,965.49
2019,10,03,14,45,965.49
2019,10,03,14,46,965.49
2019,10,03,14,47,965.49
2019,10,03,14,48,965.49
2019,10,03,14,49,965.49
2019,10,03,14,50,965.49
2019,10,03,14,51,965.49
2019,10,03,14,52,965.49
2019,10,03,14,53,965.49
2019,10,03,14,54,965.49
2019,10,03,14,55,965.49
2019,10,03,14,56,965.49
2019,10,03,14,57,965.49
2019,10,03,14,58,965.49
2019,10,03,14,59,965.49
2019,10,03,15,00,965.49
2019,10,03,15,01,965.49
2019,10,03,15,02,965.49
2019,10,03,15,03,965.49
2019,10,03,15,04,965.49
2019,10,03,15,05,965.49
2019,10,03,15,06,965.49
2019,10,03,15,07,965.49
2019,10,03,15,08,965.49
2019,10,03,15,09,965.49
2019,10,03,15,10,965.49
2019,10,03,15,11,965.49
2019,10,03,15,12,965.49
2019,10,03,15,13,965.49
2019,10,03,15,14,965.49
2019,10,03,15,15,965.49
2019,10,03,15,16,965.49
2019,10,03,15,17,965.49
2019,10,03,15,18,965.49
2019,10,03,15,19,965.49
2019,10,03,15,20,965.49
2019,10,03,15,21,965.49
2019,10,03,15,22,965.49
2019,10,03,15,23,965.49
2019,10,03,15,24,965.49
2019,10,03,15,25,965.49
2019,10,03,15,26,965.49
2019,10,03,15,27,965.49
2019,10,03,15,28,965.49
2019,10,03,15,29,965.49
2019,10,03,15,30,965.49
2019,10,03,15,31,965.49
2019,10,03,15,32,965.49
2019,10,03,15,33,965.49
2019,10,03,15,34,965.49
2019,10,03,15,35,965.49
2019,10,03,15,36,965.49
2019,10,03,15,37,965.49
2019,10,03,15,38,965.49
2019,10,03,15,39,965.49
2019,10,03,15,40,965.49
2019,10,03,15,41,965.49
2019,10,03,15,42,965.49
2019,10,03,15,43,965.49
2019,10,03,15,44,965.49
2019,10,03,15,45,965.49
2019,10,03,15,46,965.49
2019,10,03,15,47,965.49
2019,10,03,15,48,965.49
2019,10,03,15,49,965.49
2019,10,03,15,50,965.49
2019,10,03,15,51,965.49
2019,10,03,15,52,965.49
2019,10,03,15,53,965.49
2019,10,03,15,54,965.49
2019,10,03,15,55,965.49
2019,10,03,15,56,965.49
2019,10,03,15,57,965.49
2019,10,03,15,58,965.49
2019,10,03,15,59,965.49
2019,10,03,16,00,965.49
2019,10,03,16,01,965.49
2019,10,03,16,02,965.49
2019,10,03,16,03,965.49
2019,10,03,16,04,965.49
2019,10,03,16,05,965.49
2019,10,03,16,06,965.49
2019,10,03,16,07,965.49
2019,10,03,16,08,965.49
2019,10,03,16,09,965.49
2019,10,03,16,10,965.49
2019,10,03,16,11,965.49
2019,10,03,16,12,965.49
2019,10,03,16,13,965.49
2019,10,03,16,14,965.49
2019,10,03,16,15,965.49
2019,10,03,16,16,965.49
2019,10,03,16,17,965.49
2019,10,03,16,18,965.49
2019,10,03,16,19,965.49
2019,10,03,16,20,965.49
2019,10,03,16,21,965.49
2019,10,03,16,22,965.49
2019,10,03,16,23,965.49
2019,10,03,16,24,965.49
2019,10,03,16,25,965.49
2019,10,03,16,26,965.49
2019,10,03,16,27,965.49
2019,10,03,16,28,965.49
2019,10,03,16,29,965.49
2019,10,03,16,30,965.49
2019,10,03,16,31,965.49
2019,10,03,16,32,965.49
2019,10,03,16,33,965.49
2019,10,03,16,34,965.49
2019,10,03,16,35,965.49
2019,10,03,16,36,965.49
2019,10,03,16,37,965.49
2019,10,03,16,38,965.49
2019,10,03,16,39,965.49